Regional Weather Roundup
Issued by NWS

Home | Current Version | Previous Version | Graphics & Text | Print | Product List | Glossary On
Versions: 1 2 3 4 5 6 7 8 9 10 11 12 13 14 15 16 17 18 19 20 21 22 23 24 25 26 27 28 29 30 31 32 33 34 35 36 37 38 39 40 41 42 43 44 45 46 47 48 49 50
000
ASUS43 KTOP 240308
RWRKS

WEATHER ROUNDUP FOR KANSAS
NATIONAL WEATHER SERVICE GOODLAND KS
1000 PM CDT THU OCT 23 2014

NOTE:  "FAIR" INDICATES FEW OR NO CLOUDS BELOW 12,000 FEET WITH NO
SIGNIFICANT WEATHER AND/OR OBSTRUCTIONS TO VISIBILITY.

KSZ001>006-013>018-027>032-041>047-240400-
NORTHWEST KANSAS

CITY           SKY/WX    TMP DP  RH WIND       PRES   REMARKS
GOODLAND       PTCLDY    57  53  86 S14       30.08S
HAYS           CLEAR     59  54  82 S6        30.05S
HILL CITY      CLEAR     60  55  83 SW5       30.04F
RUSSELL        CLEAR     59  56  89 S8        30.03F
$$

KSZ061>065-074>080-084>089-240400-
SOUTHWEST KANSAS

CITY           SKY/WX    TMP DP  RH WIND       PRES   REMARKS
DODGE CITY     CLEAR     62  57  83 S10       30.08S
ELKHART          N/A     57  51  80 E7          N/A
GARDEN CITY    CLEAR     58  54  86 S7        30.08S
GREAT BEND     PTCLDY    61  54  77 S8        30.06S
LIBERAL        CLEAR     64  55  72 E8        30.10S
PRATT          CLEAR     63  55  77 S5        30.08F
$$

KSZ066>073-081>083-090>101-240400-
SOUTHEAST KANSAS

CITY           SKY/WX    TMP DP  RH WIND       PRES   REMARKS
CHANUTE        CLOUDY    59  57  93 S8        30.11R
COFFEYVILLE    CLEAR     56  55  97 SE6       30.12R
HUTCHINSON     PTCLDY    60  57  89 SE3       30.07S
MEDICINE LODGE   N/A     64  60  87 E7        30.06F
NEWTON         PTCLDY    61  55  82 SE7       30.10R
PARSONS        CLEAR     57  56  96 SE3       30.13R FOG
WICHITA INTL   PTCLDY    64  58  80 SE8       30.07R
WICHITA JABRA  CLEAR     60  58  92 S6        30.07S
WICHITA MCCONL CLEAR     63  63 100 SE6       30.08R
WINFIELD       CLEAR     64  60  87 SE9       30.10R
$$

KSZ007>012-019>026-033>040-048>060-102>105-240400-
NORTHEAST KANSAS

CITY           SKY/WX    TMP DP  RH WIND       PRES   REMARKS
CONCORDIA      MOCLDY    61  58  90 S9        30.04S
EMPORIA        CLEAR     59  58  96 S10       30.08F
LAWRENCE       CLEAR     55  54  96 SE5       30.09R FOG
MANHATTAN      PTCLDY    59  57  93 CALM      30.06R
MARYSVILLE     MOCLDY    59  54  82 S3        30.04S
OLATHE IND     CLEAR     55  55 100 S6        30.10R FOG
OLATHE EXE     MOCLDY    59  58  96 S5        30.09R FOG
SALINA         PTCLDY    63  59  87 S8        30.05S
TOPEKA BILLARD CLEAR     61  59  93 S5        30.08R
TOPEKA FORBES  CLEAR     59  57  93 S6        30.08R
$$



USA.gov is the U.S. government's official web portal to all federal, state and local government web resources and services.